星链-5909 (STARLINK-5909 )

导读 | 豆包AI

STARLINK-5909是美国太空探索技术公司Starlink星链卫星互联网项目的一员,于2023年3月17日发射入轨。星链项目旨在构建全球卫星互联网星座,为偏远地区等提供网络服务,STARLINK-5909属于该星座近地轨道组网批次卫星,后续将参与星座运营,承担网络传输服务任务。

Basic Information
目录编号:
55938
目录名称:
STARLINK-5909
国际标识:
2023-037AA
轨道中心:
EARTH
卫星名称:
星链-5909
卫星全名:
星链-5909 (STARLINK-5909 )
卫星状态:
在轨 (已飞行1094 天)
发射日期:
2023-03-17 UTC
国别 :
美国 (US)
星等 :
--
Orbit Information
数据来源 国际轨道数据 AOE轨道数据
星历时间 2026-03-15T06:09:27+0800
21小时前
查看轨道信息
2026-03-12T17:00:00+0800
3天前
查看轨道信息
半长轴 6950.201km 6950.19km
偏心率 0.0002269 0.0002352
轨道倾角 69.998° 69.997°
近地点辐角 268.665° 273.130°
升交点赤经 271.278° 277.702°
平近点角 91.425° 25.803°
近地点 570.486km 570.418km
远地点 573.642km 573.688km
周期 96.107分钟 96.107分钟
每日圈数 14.983276 14.983312
Detailed Information
固有亮度:
5
最大亮度:
2.5
卫星平台:
Starlink v1.5
覆盖范围:
全球
运营商:
太空探索技术公司
运营商所在国:
美国
制造商(研发单位):
太空探索技术公司
制造商所在国:
美国
使用方式:
暂无
Satellite Introduction
星链(Starlink)计划是由太空探索技术公司(SpaceX)提出的一个巨型低轨卫星互联网星座项目,计划在2019年至2024年间在太空搭建由约1.2万颗卫星组成的“星链”网络,其中1584颗将部署在地球上空550千米处的近地轨道,并从2020年开始工作。该卫星仍在工作。
2D Orbit Map
3D Orbit Map
Orbit Altitude Analysis Chart
Orbit Inclination Analysis Chart
Orbit Comprehensive Analysis Chart
View Comprehensive Chart